Location: San Martino di Castrozza
(46.2667°N, 11.8000°E)
Time: 07:01:31
(UTC+00:00)

DELTA 2 R/B (1) - Pass Details

Date: 23 April 2021
Orbit: 790 x 803 km, 39.6° (Epoch: 07 May)

Event Time Altitude Azimuth Distance (km) Brightness Sun altitude
Exits shadow 03:05:24 14° 253° (WSW) 2,076 5.1 -11.2°
Maximum altitude 03:09:13 29° 200° (SSW) 1,409 4.5 -10.7°
Drops below altitude 10° 03:13:57 10° 141° (SE) 2,352 6.1 -10.0°
Sets 03:16:43 0° 130° (SE) 3,282 7.0 -9.5°
